Regional Weather Roundup
Issued by NWS

Current Version | Previous Version | Text Only | Print | Product List | Glossary On
Versions: 1 2 3 4 5 6 7 8 9 10 11 12 13 14 15 16 17 18 19 20 21 22 23 24 25 26 27 28 29 30 31 32 33 34 35 36 37 38 39 40 41 42 43 44 45 46 47 48 49 50
000
ASUS42 KTBW 181118
RWRFL
FLORIDA REGIONAL WEATHER ROUNDUP
NATIONAL WEATHER SERVICE TAMPA BAY RUSKIN FL
700 AM EDT SUN APR 18 2021

NOTE: "FAIR" INDICATES FEW OR NO CLOUDS BELOW 12,000 FEET WITH NO
SIGNIFICANT WEATHER AND/OR OBSTRUCTIONS TO VISIBILITY.

FLZ001>010-012>015-112-114-115-181200-
PANHANDLE FLORIDA

CITY           SKY/WX    TMP DP  RH WIND       PRES   REMARKS
PENSACOLA      MOCLDY    60  57  89 N8        29.90F
CRESTVIEW      MOCLDY    59  57  93 N3        29.93F
DUKE FIELD     FAIR      59  57  93 CALM      29.91S
VALPARAISO     LGT RAIN  61  59  94 N5        29.90F
MARY ESTHER    LGT RAIN  61  59  94 N8        29.89F
PANAMA CITY    LGT RAIN  61  60  97 CALM      29.91R
TYNDALL AFB    LGT RAIN  63  62  94 N5        29.91R
APALACHICOLA   CLOUDY    65  65 100 CALM      29.93R

STATION/POSITION SKY/WX   TEMP    WIND        PRES    WAVE   SWELL
                          AIR SEA DIR/SP/G            HT/PER HT/PER
                          (F)     (DEG/KT/KT) (MB)    (FT/S) (FT/S)
30.1N   87.6W              63 68   30/ 16/ 17 1011.7F   2/ 3
29.2N   88.2W              65 72   20/ 16/ 19 1013.0
28.8N   86.0W              70 72   40/  8/ 10 1012.9R   3/ 7   2/ 7
PANAMA CITY BEAC           62 69  330/  7/  9 1013.8R
TOWER C                    66     320/  1/  1 1013.0R
28.5N   84.5W                 72   70/  4/  6 1011.8R   2/ 7   2/ 7

$$
FLZ011-016>038-118-127-128-134-139-239-181200-
NORTH FLORIDA

CITY           SKY/WX    TMP DP  RH WIND       PRES   REMARKS
MARIANNA       LGT RAIN  61  60  97 W7        29.92R
TALLAHASSEE    CLOUDY    64  63  96 NW6       29.93R
LIVE OAK       CLOUDY    64  64 100 CALM      29.87F
CROSS CITY     LGT RAIN  66  65  99 S7        29.89F
LAKE CITY      CLOUDY    63  63 100 SE5       29.89F
GAINESVILLE    RAIN      66  64  93 NW5       29.95R
WILLISTON      CLOUDY    66  66  99 N12       29.94R
PALATKA        CLOUDY    63  61  94 CALM      29.93R
MAYPORT NAS    LGT RAIN  67  66  97 SW6       29.92R
JACKSONVILLE   LGT RAIN  65  64  97 SW5       29.91R
JAX NAS        LGT RAIN  66  65  96 W8        29.94R
JAX CECIL      LGT RAIN  64  64 100 VRB5      29.93R
FERNANDINA BEA LGT RAIN  66 N/A N/A SW7       29.92R
ST AUGUSTINE   CLOUDY    66  66 100 W3        29.94R
PALM COAST     CLOUDY    64  63  94 CALM      29.92R

STATION/POSITION SKY/WX   TEMP    WIND        PRES    WAVE   SWELL
                          AIR SEA DIR/SP/G            HT/PER HT/PER
                          (F)     (DEG/KT/KT) (MB)    (FT/S) (FT/S)
SHELL POINT      NOT AVBL
KEATON BEACH               65     120/  3/  4 1012.6R
CEDAR KEY                  71     160/  7/  8 1012.1F
FERNANDINA                 69 70  260/  6/  7 1012.5R
30.7N   81.3W              65 67                N/A     2/12   2/12
MAYPORT                    66 69  260/  6/  8 1012.9R
31.4N   80.9W              65 67  270/ 12/ 14 1011.4R   2/11   2/11
ST AUGUSTINE               66 68  290/  2/  3 1013.7R

$$
FLZ040-043>046-052-053-057-058-063-144-181200-
INTERIOR CENTRAL FLORIDA

CITY           SKY/WX    TMP DP  RH WIND       PRES   REMARKS
OCALA          CLOUDY    67  67 100 CALM      29.91S
LEESBURG       MOCLDY    69  66  90 N5        29.92R
SANFORD        CLOUDY    67  66  97 N6        29.92R
ORLANDO EXEC   CLOUDY    72  68  87 CALM      29.91R
ORLANDO INTL   CLOUDY    70  69  97 S3        29.91R
KISSIMMEE      MOCLDY    72  72 100 SW5       29.93R FOG
WINTER HAVEN   CLOUDY    73  71  93 SW8       29.93R
LAKELAND       CLOUDY    72  72 100 SW7       29.93R FOG
BARTOW         CLOUDY    72  72 100 SW9       29.93R
SEBRING        FOG       67  67  99 SW6       29.93R VSB<1/4
OKEECHOBEE     CLOUDY    64  64 100 CALM      29.93R

$$
FLZ041-047-054-059-064-141-147-181200-
EAST CENTRAL FLORIDA

CITY           SKY/WX    TMP DP  RH WIND       PRES   REMARKS
ORMOND BEACH   MOCLDY    64  64 100 SW5       29.91
DAYTONA BEACH  MOCLDY    64  62  93 CALM      29.92R
DELAND         MOCLDY    66  65  98 CALM      29.93R
NEW SMYRNA BEA MOCLDY    66  64  94 CALM      29.90
JFK SPACE CTR  PTCLDY    68  65  91 S3        29.89R FOG
TITUSVILLE     CLEAR     72  70  94 S9        29.90
CAPE CANAVERAL CLEAR     69  66  90 S9        29.90R
PATRICK AFB    PTCLDY    73  64  74 SE7       29.90R
MELBOURNE      CLOUDY    73  67  81 SE6       29.92R
VERO BEACH     CLEAR     69  67  93 CALM      29.93R
FT PIERCE      FOG       66  63  90 SW5       29.93R VSB 1/2
STUART         CLEAR     70  66  88 W5        29.95R

STATION/POSITION SKY/WX   TEMP    WIND        PRES    WAVE   SWELL
                          AIR SEA DIR/SP/G            HT/PER HT/PER
                          (F)     (DEG/KT/KT) (MB)    (FT/S) (FT/S)
28.5N   80.2W                 75              1012.1R   3/12   2/12
28.9N   78.5W              74     280/  2/  4 1012.8R   3/11   2/11
TRIDENT PIER               71 75  150/  8/ 11 1013.5R
28.4N   80.5W                 75                N/A     2/12   2/12
27.5N   80.2W                 76                N/A     2/12   2/12

$$
FLZ050-056-061-142-242-148-248-149-249-151-251-155-255-
160-260-181200-
WEST CENTRAL FLORIDA

CITY           SKY/WX    TMP DP  RH WIND       PRES   REMARKS
CRYSTAL RIVER  FAIR      64  64 100 CALM      29.91R
INVERNESS      CLOUDY    68  68 100 CALM      29.92R
BROOKSVILLE    CLOUDY    68  66  93 CALM      29.92R
CLEARWATER AIR CLOUDY    73  72  94 SW6       29.91R
ST PETE CLEARW MOCLDY    75  74  96 SW8       29.91R
TAMPA INTL     CLOUDY    77  72  84 SW8       29.91R
TAMPA EXEC     CLOUDY    77  73  88 SW3       29.92R
PLANT CITY     CLOUDY    73  73 100 SW3       29.94R FOG
MACDILL AFB    CLOUDY    75  75  99 SW9       29.89R
PETER O KNIGHT CLOUDY    77  73  88 SW7       29.92R
ST PETERSBURG  MOCLDY    75  73  93 SW6       29.89R
SARASOTA       CLEAR     75  73  93 SW6       29.90R
VENICE         CLOUDY    75  73  94 S10       29.92R FOG

STATION/POSITION SKY/WX   TEMP    WIND        PRES    WAVE   SWELL
                          AIR SEA DIR/SP/G            HT/PER HT/PER
                          (F)     (DEG/KT/KT) (MB)    (FT/S) (FT/S)
27.3N   84.3W                 74                N/A     3/ 6
CLEARWATER BEACH           75 81  200/ 13/ 15 1012.7R
MIDDLE TAMPA BAY           75     220/ 12/ 14   N/A
VENICE                     76 80  200/  9/ 10 1012.3S

$$
FLZ066-069-070-075>078-162-262-165-265-181200-
SOUTHWEST FLORIDA AND KEYS

CITY           SKY/WX    TMP DP  RH WIND       PRES   REMARKS
PUNTA GORDA    CLEAR     70  69  97 S5        29.94R FOG
FT MYERS       PTCLDY    72  71  97 S3        29.93R
SOUTHWEST INTL PTCLDY    72  69  90 S6        29.94R
NAPLES         PTCLDY    73  71  93 NE3       29.94R
MARCO ISLAND   CLOUDY    71  69  93 E3        29.96R
IMMOKALEE      CLOUDY    68  68 100 S3        29.95R
MARATHON       PTCLDY    78  73  84 S7        29.94R
KEY WEST NAS   MOCLDY    78  75  90 S9        29.94R
KEY WEST INTL  PTCLDY    79  73  82 S8        29.95R

STATION/POSITION SKY/WX   TEMP    WIND        PRES    WAVE   SWELL
                          AIR SEA DIR/SP/G            HT/PER HT/PER
                          (F)     (DEG/KT/KT) (MB)    (FT/S) (FT/S)
NAPLES                     79 80  170/  3/  4 1014.4R
26.0N   85.6W              78 77              1011.8S   3/ 6   2/ 6
DRY TORTUGAS     NOT AVBL
SAND KEY                   78     180/  9/ 12 1014.2R
SOMBRERO KEY               78     180/  9/ 10 1014.3R
LONG KEY                   79                 1014.3R

$$
FLZ067-068-071>074-168-172>174-181200-
SOUTHEAST FLORIDA

CITY           SKY/WX    TMP DP  RH WIND       PRES   REMARKS
W PALM BEACH   MOCLDY    71  70  96 SW6       29.96R
BOCA RATON     PTCLDY    72  70  94 W5        29.96
FT LAUDER-EXEC CLEAR     72  70  93 CALM      29.95R
FT LAUDERDALE  PTCLDY    74  70  87 S3        29.95R
POMPANO BEACH  CLEAR     72  68  87 SW3       29.95R
PEMBROKE PINES MOCLDY    73  68  84 CALM      29.97R
OPA LOCKA      MOCLDY    74  67  78 CALM      29.96R
MIAMI          MOCLDY    74  68  81 CALM      29.96R
WEST KENDALL   PTCLDY    75  67  76 CALM      29.96R
HOMESTEAD      MOCLDY    71  68  92 CALM      29.93S

STATION/POSITION SKY/WX   TEMP    WIND        PRES    WAVE   SWELL
                          AIR SEA DIR/SP/G            HT/PER HT/PER
                          (F)     (DEG/KT/KT) (MB)    (FT/S) (FT/S)
VIRGINIA KEY               77 82     CALM     1014.7R
LAKE WORTH                 73 77   CALM  /  4 1013.6R
FOWEY ROCKS                78 77  230/  5/  5 1014.3R
SETTLEMENT POINT           77     280/  6/  7 1014.4R

$$




USA.gov is the U.S. government's official web portal to all federal, state and local government web resources and services.